CZ-6A DEB

Satellite information

Favourite Embed

Satellite Type and Status

DEBRISIN ORBIT

Key statistics

Satellite CZ-6A DEB at a glance.

Uptime

1027

Days in orbit

Revolutions

≈ 14.6

Per day

Orbit

SSO

Sun Synchronous Orbit

Inclination

98.8

Latest

Satellite identification and parameters

Extended collection of information and parameters for CZ-6A DEB.

Object identification

Identified? True

Debris? True

Object name: CZ-6A DEB

International designator: 2022-151S

Object number (NORAD): 54275

Object ID (CCSDS): 54275

Country: PEOPLES REPUBLIC OF CHINA (PRC)

Current information (Y/N): Y

RCS size: SMALL

Orbital parameters

Period: 98.386 minutes

Inclination: 98.8316 deg

SMA: 7059.625 km

Apoapsis: 745.184 km

Periapsis: 617.797 km

RAAN: 319.6057 deg

Eccentricy: 0.00902225

Argument of periapsis: 95.2482 deg

Mean anomaly: 265.9021 deg

Mean motion: 14.63626576 rev/day

Mean motion (dot): 0.00035754 rev/day2

B* drag term: 0.006463656 1/REarth

Two-line elements (TLE)

Creation date: Sept. 2, 2025, 10:20 a.m.

Reference frame: TEME

Reference center: EARTH

Epoch: Sept. 2, 2025, 3:39 a.m. UTC

TLE line 0: 0 CZ-6A DEB

TLE line 1: 1 54275U 22151S 25245.15217567 .00035754 00000-0 64637-2 0 9998

TLE line 2: 2 54275 98.8316 319.6057 0090222 95.2482 265.9021 14.63626576147942

Live tracking on map

Real-time ground track for satellite CZ-6A DEB.

In-orbit conjunctions

A list of the most updated potential collisions computed for object CZ-6A DEB.

Target Orbit TCA Probability of collision Miss distance Type
SDS-1 SSO 2025-08-21 16:49:35 0.0003972657 684.0 (m) PAYLOAD
FENGYUN 1C DEB SSO 2024-06-03 18:21:09 0.0001355242 72.0 (m) DEBRIS

Associated space launch

Chinese satellite reported for atmospheric/ocean/environmental/spatial parameter research purposes, details TBD.

CZ-6A DEB was lifted into orbit during the mission ‘Long March 6A | Yunhai 3’, on board a Long March 6A space rocket.

The launch took place on Nov. 11, 2022, 10:52 p.m. from Launch Complex 9A.

For more information about the launch, click the button.

Launch to space Long March 6A | Yunhai 3
Long March 6A | Yunhai 3

Agency: N/A

Status: Launch Successful

Launch date: Nov. 11, 2022, 10:52 p.m. UTC

Rocket: Long March 6A

Launch pad: Launch Complex 9A

Location: Taiyuan Satellite Launch Center, People's Republic of China

...

Latest news about this satellite

There are no fresh news available about this satellite. Check back as we update our databases every day.


Newsletter sign-up

Weekly statistics, charts and insights to help you stay on top of the space industry.